Weather History for Marshfield, WI

Change the Weather History Date:

Wednesday, November 10, 2010

  Actual Average Record
Temperature  
Mean Temperature 52 °F -  
Max Temperature 63 °F 42 °F 80 °F (1930)
Min Temperature 41 °F 27 °F 6 °F (1933)
Degree Days  
Heating Degree Days 13    
Growing Degree Days 2 (Base 50)    
Moisture  
Dew Point 42 °F    
Average Humidity 75    
Maximum Humidity 89    
Minimum Humidity 52    
Precipitation  
Precipitation 0.00 in - - ()
Sea Level Pressure  
Sea Level Pressure 30.00 in    
Wind  
Wind Speed 9 mph (ESE)    
Max Wind Speed 20 mph    
Max Gust Speed 28 mph    
Visibility 6 miles    
Events      
Averages and records for this station are not official NWS values.
T = Trace of Precipitation, MM = Missing Value Source: NWS Daily Summary

Daily Weather History Graph

Daily Weather History Graph

Search for Another Location

Airport:

Trip Planner

Search our weather history database for the weather conditions in past years. The results will help you decide how hot, cold, wet, or windy it might be!

Date:

Astronomy

Nov. 10, 2010 Rise Set
Actual Time 6:50 AM CST 4:38 PM CST
Civil Twilight 6:19 AM CST 5:09 PM CST
Nautical Twilight 5:44 AM CST 5:44 PM CST
Astronomical Twilight 5:10 AM CST 6:18 PM CST
Moon 11:18 AM CST (11/10) 8:37 PM CST (11/10)
Length of Visible Light 10h 49m
Length of Day
9h 47m
Waxing Crescent, 23% of the Moon is Illuminated
Nov 10
Waxing Crescent
Nov 13
First Quarter
Nov 21
Full
Nov 28
Last Quarter
Dec 5
New

Hourly Weather History & Observations

Time (CST) Temp. Windchill Dew Point Humidity Pressure Visibility Wind Dir Wind Speed Gust Speed Precip Events Conditions
12:54 AM 43.0 °F 38.2 °F 37.9 °F 82% 30.00 in 5.0 mi East 8.1 mph - N/A   Haze
2:54 AM 41.0 °F 35.8 °F 37.0 °F 86% 30.00 in 4.0 mi East 8.1 mph - N/A   Clear
3:54 AM 41.0 °F 35.8 °F 37.9 °F 89% 29.99 in 4.0 mi East 8.1 mph - N/A   Clear
4:54 AM 42.1 °F 38.4 °F 37.9 °F 85% 30.00 in 4.0 mi East 5.8 mph - N/A   Clear
5:54 AM 41.0 °F 37.1 °F 37.9 °F 89% 30.00 in 3.0 mi East 5.8 mph - N/A   Clear
6:46 AM 42.8 °F 38.6 °F 39.2 °F 87% 29.98 in 2.0 mi East 6.9 mph - N/A   Clear
6:54 AM 42.1 °F 38.4 °F 39.0 °F 89% 30.00 in 1.8 mi East 5.8 mph - N/A   Clear
7:38 AM 42.8 °F 41.1 °F 39.2 °F 87% 30.00 in 2.0 mi East 3.5 mph - N/A   Clear
7:54 AM 43.0 °F 39.5 °F 39.9 °F 89% 30.02 in 2.0 mi East 5.8 mph - N/A   Clear
8:33 AM 46.4 °F 43.5 °F 42.8 °F 87% 30.00 in 3.0 mi ESE 5.8 mph - N/A   Clear
8:54 AM 48.0 °F - 43.0 °F 83% 30.02 in 3.0 mi ESE 8.1 mph - N/A   Haze
9:54 AM 52.0 °F - 44.1 °F 74% 30.01 in 5.0 mi ESE 9.2 mph - N/A   Haze
10:54 AM 55.0 °F - 45.0 °F 69% 30.02 in 6.0 mi ESE 12.7 mph - N/A   Haze
11:54 AM 57.9 °F - 45.0 °F 62% 30.01 in 8.0 mi SE 9.2 mph - N/A   Clear
12:54 PM 60.1 °F - 45.0 °F 57% 29.99 in 10.0 mi SE 15.0 mph - N/A   Clear
1:54 PM 61.0 °F - 46.0 °F 58% 29.96 in 10.0 mi SE 15.0 mph - N/A   Clear
2:54 PM 63.0 °F - 45.0 °F 52% 29.96 in 10.0 mi SE 19.6 mph 27.6 mph N/A   Clear
3:54 PM 60.1 °F - 44.1 °F 55% 29.98 in 9.0 mi SSE 12.7 mph - N/A   Clear
4:54 PM 55.0 °F - 45.0 °F 69% 29.99 in 9.0 mi SE 11.5 mph - N/A   Clear
5:54 PM 53.1 °F - 44.1 °F 71% 30.00 in 9.0 mi ESE 6.9 mph - N/A   Clear
6:54 PM 54.0 °F - 43.0 °F 66% 30.00 in 9.0 mi SE 10.4 mph - N/A   Clear
7:54 PM 53.1 °F - 44.1 °F 71% 30.01 in 9.0 mi SE 11.5 mph - N/A   Overcast
8:54 PM 52.0 °F - 44.1 °F 74% 30.01 in 7.0 mi SE 8.1 mph - N/A   Mostly Cloudy
9:54 PM 55.0 °F - 45.0 °F 69% 30.01 in 8.0 mi SSE 11.5 mph - N/A   Overcast
10:54 PM 54.0 °F - 45.0 °F 72% 30.02 in 8.0 mi SSE 11.5 mph - N/A   Partly Cloudy
11:54 PM 54.0 °F - 46.0 °F 75% 30.03 in 9.0 mi SSE 10.4 mph - N/A   Mostly Cloudy